Time,TemperatureF,DewpointF,PressureIn,WindDirection,WindDirectionDegrees,WindSpeedMPH,WindSpeedGustMPH,Humidity,HourlyPrecipIn,Conditions,Clouds,dailyrainin,SoftwareType,DateUTC
2013-07-25 02:53:00,55.0,-99.9,-100.00,North,-999,-999.0,-999.0,95,-99.99,,,-99.99,,2013-07-25 09:53:00,
2013-07-25 04:03:00,55.0,-99.9,-100.00,North,-999,-999.0,-999.0,-999,-99.99,,,-99.99,,2013-07-25 11:03:00,
2013-07-25 04:12:00,55.0,-99.9,-100.00,North,-999,-999.0,-999.0,-999,-99.99,,,-99.99,,2013-07-25 11:12:00,
2013-07-25 05:33:00,53.0,-99.9,-100.00,North,-999,-999.0,-999.0,99,-99.99,,,-99.99,,2013-07-25 12:33:00,
2013-07-25 07:12:00,53.0,-99.9,-100.00,North,-999,-999.0,-999.0,-999,-99.99,,,-99.99,,2013-07-25 14:12:00,
2013-07-25 08:33:00,59.0,-99.9,-100.00,North,-999,-999.0,-999.0,99,-99.99,,,-99.99,,2013-07-25 15:33:00,
2013-07-25 11:43:00,-999.0,-99.9,-100.00,NNW,340,1.0,-999.0,-999,-99.99,,,-99.99,,2013-07-25 18:43:00,
2013-07-25 11:53:00,74.0,-99.9,-100.00,NNW,340,1.0,-999.0,80,-99.99,,,-99.99,,2013-07-25 18:53:00,
2013-07-25 12:12:00,-999.0,-99.9,-100.00,WNW,290,1.0,-999.0,-999,-99.99,,,-99.99,,2013-07-25 19:12:00,
2013-07-25 12:33:00,74.0,-99.9,-100.00,North,-999,-999.0,-999.0,223,-99.99,,,-99.99,,2013-07-25 19:33:00,
2013-07-25 12:43:00,76.0,-99.9,-100.00,NNW,330,2.0,-999.0,83,-99.99,,,-99.99,,2013-07-25 19:43:00,
2013-07-25 13:22:00,-999.0,-99.9,-100.00,WNW,300,2.0,-999.0,-999,-99.99,,,-99.99,,2013-07-25 20:22:00,
2013-07-25 13:32:00,74.0,-99.9,-100.00,WNW,300,2.0,-999.0,68,-99.99,,,-99.99,,2013-07-25 20:32:00,
2013-07-25 15:53:00,-999.0,-99.9,-100.00,East,100,0.0,-999.0,-999,-99.99,,,-99.99,,2013-07-25 22:53:00,
2013-07-25 16:02:00,-999.0,-99.9,-100.00,East,100,0.0,-999.0,-999,-99.99,,,-99.99,,2013-07-25 23:02:00,
2013-07-25 16:12:00,67.0,-99.9,-100.00,East,100,0.0,-999.0,-999,-99.99,,,-99.99,,2013-07-25 23:12:00,
2013-07-25 16:52:00,-999.0,-99.9,-100.00,WSW,240,1.0,-999.0,-999,-99.99,,,-99.99,,2013-07-25 23:52:00,
2013-07-25 20:33:00,63.0,-99.9,-100.00,North,-999,-999.0,-999.0,98,-99.99,,,-99.99,,2013-07-26 03:33:00,
2013-07-25 20:44:00,62.0,-99.9,-100.00,North,-999,-999.0,-999.0,99,-99.99,,,-99.99,,2013-07-26 03:44:00,
2013-07-25 21:23:00,60.0,-99.9,-100.00,North,-999,-999.0,-999.0,-999,-99.99,,,-99.99,,2013-07-26 04:23:00,
2013-07-25 21:32:00,60.0,-99.9,-100.00,North,-999,-999.0,-999.0,-999,-99.99,,,-99.99,,2013-07-26 04:32:00,
2013-07-25 23:33:00,58.0,-99.9,-100.00,North,-999,-999.0,-999.0,-999,-99.99,,,-99.99,,2013-07-26 06:33:00,